sat.trackr.live / text

‹ back to catalog

KUIPER-00113

NORAD 65948 · 2025-228B

PAYLOAD ACTIVE UNKNOWN

§ Identity

Operator
Country
US
Launch date
2025-10-14
Launch site
AFETR
Launch vehicle
Mass (kg)
RCS (m²)

External: N2YO · Heavens-Above · Gunter

§ Orbital elements

Epoch: 2026-05-25T01:02:14.784288Z

Period
97.30 min
Inclination
51.8997°
Eccentricity
0.0000942
Mean motion
14.79938587 rev/d
Perigee alt
628.9 km
Apogee alt
630.2 km
Semi-major
7,007.7 km
B*
4.7551e-4
RAAN
17.9466°
Arg perigee
102.1434°
Mean anomaly
257.9633°
Rev number
3,460

§ Raw data

KUIPER-001131 65948U 25228B   26145.04322667  .00003406  00000+0  47551-3 0  99962 65948  51.8997  17.9466 0000942 102.1434 257.9633 14.79938587 34605

JSON: /api/v1/satellites/65948 · /tle

For live sub-satellite position, see the globe view (requires WebGL).

§ Visibility from observer

Set your observer location to see the next 7 days of passes ≥ 10°. The values pass through the URL so the page stays shareable.

No JS? Fill the form by hand. The geolocation button needs JavaScript.